Tracking 20942 objects as of 10-Jul-2020
HD Live streaming from Space Station
objects crossing your sky now

FLOCK 2K 21

Track FLOCK 2K 21 now!
10-day predictions
FLOCK 2K 21 is classified as:


NORAD ID: 42860
Int'l Code: 2017-042AM
Perigee: 444.0 km
Apogee: 453.6 km
Inclination: 96.9 °
Period: 93.4 minutes
Semi major axis: 6819 km
RCS: Unknown
Launch date: July 14, 2017
Source: United States (US)
Launch site: TYURATAM MISSILE AND SPACE COMPLEX (TTMTR)
aabbcc
Your satellite tracking list
Your tracking list is empty




NASA's NSSDC Master Catalog

Two Line Element Set (TLE):
1 42860U 17042AM  20192.40981444  .00002462  00000-0  60559-4 0  9995
2 42860  96.8908  59.0012 0007042 244.9218 115.1300 15.41494398167645
Source of the keplerian elements: AFSPC